Weather Roundup
Issued by NWS Chicago, IL

Home | Current Version | Previous Version | Text Only | Print | Product List | Glossary On
Versions: 1 2 3 4 5 6 7 8 9 10 11 12 13 14 15 16 17 18 19 20 21 22 23 24 25 26 27 28 29 30 31 32 33 34 35 36 37 38 39 40 41 42 43 44 45 46 47 48 49 50
000
NZUS59 KLOT 270809
HRRLOT

CHICAGO AREA WEATHER ROUNDUP
NATIONAL WEATHER SERVICE CHICAGO/ROMEOVILLE IL
300 AM CDT TUE JUN 27 2017

NOTE: "FAIR" INDICATES FEW OR NO CLOUDS BELOW 12,000 FEET WITH NO
SIGNIFICANT WEATHER AND/OR OBSTRUCTIONS TO VISIBILITY.

* THESE STATIONS ARE NOT UNDER NWS QUALITY CONTROL. THEY ALSO MAY NOT
  REPORT WEATHER SUCH AS PRECIPITATION OR FOG.

ILZ005-006-012>014-019>023-270900-
NORTHEAST ILLINOIS

CITY           SKY/WX    TMP DP  RH WIND       PRES   REMARKS
OHARE          CLEAR     53  46  77 W5        30.10R
MIDWAY         CLEAR     56  46  69 W5        30.10R
AURORA         CLEAR     48  45  89 W5        30.12S
LANSING*       CLEAR     53  44  72 W3        30.11R
JOLIET*        CLEAR     50  48  93 CALM      30.12R
WAUKEGAN       CLEAR     52  48  86 VRB3      30.09S
DUPAGE AIRPORT CLEAR     52  46  80 CALM      30.10S
WHEELING       CLEAR     54  48  80 CALM      30.11S
MORRIS*        CLEAR     50  44  80 NW5       30.11R
LEWIS AIRPORT* CLEAR     53  44  72 W6        30.11S
NORTHERLY ISL    N/A     59  45  59 CALM        N/A
$$

WIZ051-052-058>065-066-070>072-270900-
SOUTHEAST WISCONSIN

CITY           SKY/WX    TMP DP  RH WIND       PRES   REMARKS
MILWAUKEE      PTCLDY    56  48  74 W5        30.08S
KENOSHA*       PTCLDY    48  45  89 W5        30.09S
RACINE*        CLEAR     52  46  80 W6        30.10S
WAUKESHA       CLEAR     46  43  87 SW3       30.09F
WEST BEND      CLEAR     46  46 100 W3        30.07S
$$

INZ001>003-010>013-019-020-270900-
NORTHWEST INDIANA

CITY           SKY/WX    TMP DP  RH WIND       PRES   REMARKS
GARY*          CLEAR     50  46  85 W3        30.10S
MICHIGAN CITY* NOT AVBL
RENSSELAER*    NOT AVBL
VALPARAISO     CLEAR     55  47  74 W5        30.10S
$$

LMZ740>746-270900-
SOUTHERN LAKE MICHIGAN

STATION/POSITION TIME  SKY/WX   TEMP WIND        PRES    VSBY
                                AIR  DIR/SP/G
                 (UTC)          (F)  (DEG/KT/KT) (MB)    (MI)
HARRISON CRIB    0740            60  310/  9/  9   N/A
BURNHAM HARBOR   0800            59                N/A
CALUMET HARBOR   0748            57  250/  2/  4 1018.6S
BURNS HARBOR     0740            62  330/  9/ 13 1019.0F
MICHIGAN CITY    0740            60  320/ 15/ 18   N/A
$$

ABBREVIATIONS USED IN REMARKS
   TC - TEMPERATURE IN CELSIUS
  WCI - WIND CHILL INDEX
   HX - HEAT INDEX
  VSB - VISIBILITY
$$




USA.gov is the U.S. government's official web portal to all federal, state and local government web resources and services.